Frederick, OK

12:52 PM CDT on April 29, 2017 (GMT -0500)
Frederick Municipal

Weather History for KFDR - August, 2014

Change the Weather History Date:

Monday, August 18, 2014

  Actual Average (KLTS) Record (KLTS)
Temperature  
Mean Temperature 86 °F -  
Max Temperature 100 °F 94 °F 107 °F (2011)
Min Temperature 73 °F 70 °F 65 °F (2013)
Cooling Degree Days 22    
Growing Degree Days 36 (Base 50)    
Moisture  
Dew Point 63 °F    
Average Humidity 47    
Maximum Humidity 73    
Minimum Humidity 24    
Precipitation  
Precipitation 0.00 in - - ()
Sea Level Pressure  
Sea Level Pressure 29.82 in    
Wind  
Wind Speed 10 mph (SSW)    
Max Wind Speed 18 mph    
Max Gust Speed 26 mph    
Visibility 10 miles    
Events      
Averages and records for this station are not official NWS values.
T = Trace of Precipitation, MM = Missing Value Source: NWS Daily Summary

Daily Weather History Graph

Daily Weather History Graph

Search for Another Location

Airport or City:

Trip Planner

Search our weather history database for the weather conditions in past years. The results will help you decide how hot, cold, wet, or windy it might be!

Date:

Astronomy

Aug. 18, 2014 Rise Set
Actual Time 6:59 AM CDT 8:19 PM CDT
Civil Twilight 6:32 AM CDT 8:46 PM CDT
Nautical Twilight 6:01 AM CDT 9:17 PM CDT
Astronomical Twilight 5:28 AM CDT 9:50 PM CDT
Moon 1:10 AM CDT (8/18) 3:20 PM CDT (8/18)
Length of Visible Light 14h 13m
Length of Day
13h 20m
Last Quarter, 38% of the Moon is Illuminated
Aug 18
Last Quarter
Aug 25
New
Sep 2
First Quarter
Sep 8
Full
Sep 15
Last Quarter

Hourly Weather History & Observations

Time (CDT) Temp. Heat Index Dew Point Humidity Pressure Visibility Wind Dir Wind Speed Gust Speed Precip Events Conditions
12:53 AM 81.0 °F 81.9 °F 62.1 °F 52% 29.85 in 10.0 mi SW 9.2 mph - N/A   Clear
2:53 AM 78.1 °F - 64.0 °F 62% 29.84 in 10.0 mi WSW 6.9 mph - N/A   Clear
3:53 AM 77.0 °F - 64.0 °F 64% 29.83 in 10.0 mi SW 6.9 mph - N/A   Clear
4:53 AM 75.0 °F - 64.9 °F 71% 29.82 in 10.0 mi SW 6.9 mph - N/A   Clear
5:53 AM 73.9 °F - 64.9 °F 73% 29.81 in 10.0 mi WSW 5.8 mph - N/A   Clear
6:53 AM 73.9 °F - 64.9 °F 73% 29.83 in 10.0 mi SSW 4.6 mph - N/A   Clear
7:53 AM 75.9 °F - 64.9 °F 69% 29.87 in 10.0 mi South 3.5 mph - N/A   Clear
8:53 AM 81.0 °F 83.3 °F 66.9 °F 62% 29.90 in 10.0 mi SSW 3.5 mph - N/A   Clear
9:53 AM 84.0 °F 86.5 °F 66.9 °F 56% 29.88 in 10.0 mi SW 11.5 mph - N/A   Clear
10:53 AM 88.0 °F 91.4 °F 68.0 °F 51% 29.87 in 10.0 mi SW 9.2 mph - N/A   Clear
11:53 AM 93.0 °F 95.9 °F 66.0 °F 41% 29.86 in 10.0 mi SSW 12.7 mph 18.4 mph N/A   Clear
12:53 PM 95.0 °F 96.0 °F 63.0 °F 34% 29.84 in 10.0 mi SSW 18.4 mph 25.3 mph N/A   Clear
1:53 PM 98.1 °F 99.1 °F 62.1 °F 30% 29.81 in 10.0 mi SSW 17.3 mph 25.3 mph N/A   Clear
2:53 PM 99.0 °F 100.5 °F 62.1 °F 30% 29.80 in 10.0 mi South 16.1 mph 24.2 mph N/A   Clear
3:53 PM 100.0 °F 101.2 °F 61.0 °F 28% 29.78 in 10.0 mi SSW 16.1 mph 26.5 mph N/A   Clear
4:53 PM 100.0 °F 101.2 °F 61.0 °F 28% 29.76 in 10.0 mi South 15.0 mph 24.2 mph N/A   Clear
5:53 PM 99.0 °F 98.1 °F 57.0 °F 25% 29.73 in 10.0 mi South 17.3 mph 23.0 mph N/A   Clear
6:53 PM 97.0 °F 95.0 °F 55.0 °F 24% 29.74 in 10.0 mi South 16.1 mph 23.0 mph N/A   Clear
7:53 PM 93.9 °F 92.6 °F 57.0 °F 29% 29.75 in 10.0 mi South 12.7 mph - N/A   Unknown
8:53 PM 88.0 °F 87.1 °F 59.0 °F 37% 29.79 in 10.0 mi SSE 9.2 mph - N/A   Clear
9:53 PM 84.9 °F 84.4 °F 59.0 °F 41% 29.81 in 10.0 mi SSE 11.5 mph - N/A   Clear
11:53 PM 80.1 °F 81.2 °F 62.1 °F 54% 29.83 in 10.0 mi SE 5.8 mph - N/A   Clear